Regional Weather Roundup
Issued by NWS Sterling, VA

Home | Current Version | Previous Version | Graphics & Text | Print | Product List | Glossary On
Versions: 1 2 3 4 5 6 7 8 9 10 11 12 13 14 15 16 17 18 19 20 21 22 23 24 25 26 27 28 29 30 31 32 33 34 35 36 37 38 39 40 41 42 43 44 45 46 47 48 49 50
549
ASUS41 KLWX 310910
RWRLWX

REGIONAL WEATHER ROUNDUP
NATIONAL WEATHER SERVICE BALTIMORE MD/WASHINGTON DC
500 AM EDT TUE MAY 31 2016

Note: "FAIR" indicates few or no clouds below 12,000 feet
with no significant weather and/or obstructions to visibility.
 TC=TEMPERATURE CELSIUS

 * =Non NWS site. Station does not report precipitation (e.g. rain,
    snow, etc.), thunder, or fog.

DCZ001-MDZ009-015-VAZ040>042-051-053>054-311000-
WASHINGTON METRO

CITY           SKY/WX    TMP DP  RH WIND       PRES   REMARKS
WASHINGTON NAT CLOUDY    72  66  81 NW3       29.95S
DULLES         CLOUDY    69  67  93 S5        29.96R
ANDREWS AFB    MOCLDY    67  66  96 W2        29.95R
FT BELVOIR     MOCLDY    68  66  94 CALM      29.95R
QUANTICO       FAIR      68  66  93 CALM      29.96R
COLLEGE PARK*  CLOUDY    68  64  88 CALM      29.95S
LEESBURG*      CLOUDY    72  72 100 S6        29.96S
MANASSAS*      CLOUDY    68  68 100 S3        29.96S

$$

MDZ006>007-011-014-311000-
BALTIMORE METRO

CITY           SKY/WX    TMP DP  RH WIND       PRES   REMARKS
BWI AIRPORT    MOCLDY    66  65  96 CALM      29.94S
MD SCIENCE CTR   N/A     71  67  87 MISG      29.95S
MARTIN STATE   CLEAR     70  70 100 CALM      29.95F
ANNAPOLIS      CLEAR     68  66  93 CALM      29.94R
FORT MEADE*    CLOUDY    63  63 100 CALM      29.97S

$$

MDZ012-015-019>023-311000-
MARYLAND EASTERN SHORE

CITY           SKY/WX    TMP DP  RH WIND       PRES   REMARKS
OCEAN CITY     FOG       66  65  96 E5        29.94S VSB 1/4
SALISBURY      CLOUDY    66  65  96 CALM      29.94R FOG
BAY BRIDGE AP* PTCLDY    66  66 100 CALM      29.94S
CAMBRIDGE*     CLOUDY    63  63 100 SE5       29.94R
EASTON*        FOG       68  68 100 CALM      29.98S VSB 1/2

$$

MDZ017>025-311000-
SOUTHERN MARYLAND

CITY           SKY/WX    TMP DP  RH WIND       PRES   REMARKS
PATUXENT RIVER CLOUDY    67  66  97 CALM      29.94R
ST INIGOES     LGT RAIN  68  67  96 CALM      29.94R
LEONARDTOWN*   CLOUDY    64  63  94 CALM      29.96R

$$

MDZ003>005-311000-
NORTH CENTRAL MARYLAND

CITY           SKY/WX    TMP DP  RH WIND       PRES   REMARKS
FREDERICK*     CLOUDY    68  68 100 S3        29.98S
HAGERSTOWN APT PTCLDY    65  62  90 CALM      29.97R FOG
WESTMINSTER*   PTCLDY    70  64  83 CALM      29.97S

$$

MDZ501>502-311000-
WESTERN MARYLAND

CITY           SKY/WX    TMP DP  RH WIND       PRES   REMARKS
OAKLAND*       CLEAR     63  50  63 CALM      30.07S
CUMBERLAND*    CLOUDY    63  63 100 N5        30.04S VSB 1/2

$$

VAZ025>031-311000-
SHENANDOAH VALLEY

CITY           SKY/WX    TMP DP  RH WIND       PRES   REMARKS
WINCHESTER*    FAIR      63  63 100 CALM      29.97S
FRONT ROYAL*   CLOUDY    63  63 100 CALM      29.96F VSB 1/2
LURAY*         FOG       63  63 100 CALM      29.98S VSB 1/4
NEW MARKET*    CLOUDY    63  63 100 CALM      29.98R VSB 1/4
STAUNTON*      FAIR      60  59  97 CALM      30.01S FOG
WAYNESBORO*    FAIR      61  60  96 CALM      30.00S

$$

WVZ021-048>050-054>055-311000-
EASTERN WEST VIRGINIA PANHANDLE

CITY           SKY/WX    TMP DP  RH WIND       PRES   REMARKS
MARTINSBURG    FAIR      62  61  96 CALM      29.96S FOG
PETERSBURG*    FOG       62  62  99 CALM      30.02S VSB 1/4

$$

VAZ036>039-050-311000-
CENTRAL FOOTHILLS

CITY           SKY/WX    TMP DP  RH WIND       PRES   REMARKS
CHARLOTTESVILL FOG       65  63  93 CALM      29.96S VSB 3/4
CULPEPER*      CLOUDY    69  69 100 CALM      29.97R FOG
ORANGE*        MOCLDY    68  68 100 CALM      29.98S
GORDONSVILLE*  FOG       66  66 100 NW3       29.96S VSB 1/4
WARRENTON*     CLOUDY    69  64  85 CALM      29.95S HAZE

$$

VAZ055>057-311000-
NORTH AND CENTRAL PIEDMONT

CITY           SKY/WX    TMP DP  RH WIND       PRES   REMARKS
FREDERICKSBRG* CLOUDY    66  66 100 CALM      29.94S
STAFFORD*      FOG       63  62  96 CALM      29.99S VSB 3/4

$$

NCZ024-NYZ072-PAZ021-071-VAZ022-071-311000-
OTHER REGIONAL OBSERVATIONS

CITY           SKY/WX    TMP DP  RH WIND       PRES   REMARKS
NEW YORK CITY  CLOUDY    72  66  81 VRB3      29.95S
PHILADELPHIA   CLOUDY    71  67  87 SW5       29.95S
PITTSBURGH     PTCLDY    62  55  77 CALM      29.99S
ROANOKE        FAIR      66  64  93 N6        30.00F
RICHMOND       CLOUDY    65  65 100 CALM      29.94S
RALEIGH        CLOUDY    70  69  97 NE3       29.93F FOG

$$

ANZ530>537-311000-
MARINE OBSERVATIONS

STATION/POSITION TIME  TEMP    WIND        PRES
                       AIR SEA DIR/SP/G
                 (UTC) (F)     (DEG/KT/KT) (MB)
THOMAS PT LIGHT  0900   68 70  190/  2/  2 1015.2S
BALT KEY BRIDGE  0800   70     250/  3/  4 1013.8F
COVE POINT       0800   67     320/  4/  7 1014.1F
LEWISETTA        0800   68 72  160/  3/  3 1013.4F
SOLOMONS ISLAND  0800   68 67   10/  2/  3   N/A
PINEY POINT      0800           70/  2/  3   N/A

$$





USA.gov is the U.S. government's official web portal to all federal, state and local government web resources and services.